Location: Ashtead
(51.3000°N, 0.3000°W)
Time: 16:05:26
(UTC+00:00)

CZ-2C R/B - Pass Details

Date: 03 May 2025
Orbit: 781 x 868 km, 98.4° (Epoch: 12 May)

Event Time Altitude Azimuth Distance (km) Brightness Sun altitude
Exits shadow 00:47:56 38° 146° (SE) 1,225 3.2 -22.1°
Maximum altitude 00:50:00 73° 72° (ENE) 849 2.7 -22.0°
Drops below altitude 10° 00:55:14 10° 349° (NNW) 2,378 5.9 -21.8°
Sets 00:57:33 0° 347° (NNW) 3,303 6.8 -21.8°
